LAP45 EGJB-EGJB

Flight info

Callsign LAP45
Flight time 0h 13m
Altitude 2000
Route RIGHT / LEFT HAND CIRCUITS
Aircraft DHC6/L-SDFGR/C

Departure

Time 2026-04-22 19:56
Airport Guernsey Airport (EGJB)

Arrival

Time 2026-04-22 20:10
Airport Guernsey Airport (EGJB)
Time Latitude Longitude Altitude Speed Heading
2026-04-22 19:30 49.43282 -2.59745 322 ft 0 kts 176°
2026-04-22 19:51 49.43297 -2.59735 321 ft 0 kts 239°
2026-04-22 19:51 49.43338 -2.59759 322 ft 1 kts 191°
2026-04-22 19:51 49.43351 -2.59748 323 ft 0 kts 250°
2026-04-22 19:53 49.43346 -2.59781 321 ft 9 kts 260°
2026-04-22 19:53 49.43347 -2.59959 312 ft 24 kts 270°
2026-04-22 19:53 49.43338 -2.60131 300 ft 24 kts 268°
2026-04-22 19:53 49.43325 -2.60526 288 ft 18 kts 266°
2026-04-22 19:54 49.43356 -2.60646 292 ft 13 kts 340°
2026-04-22 19:54 49.43361 -2.60649 292 ft 0 kts 344°
2026-04-22 19:54 49.43362 -2.60649 292 ft 0 kts 344°
2026-04-22 19:55 49.43366 -2.60651 297 ft 2 kts 347°
2026-04-22 19:55 49.43456 -2.60657 303 ft 23 kts
2026-04-22 19:55 49.43489 -2.60565 303 ft 0 kts 91°
2026-04-22 19:56 49.43492 -2.60344 305 ft 61 kts 88°
2026-04-22 19:56 49.43513 -2.59492 723 ft 84 kts 86°
2026-04-22 19:56 49.43569 -2.58580 1366 ft 86 kts 87°
2026-04-22 19:56 49.43699 -2.57605 1246 ft 134 kts 82°
2026-04-22 19:57 49.43890 -2.56120 998 ft 155 kts 79°
2026-04-22 19:57 49.44170 -2.54587 1376 ft 121 kts 84°
2026-04-22 19:57 49.44311 -2.53129 962 ft 135 kts 85°
2026-04-22 19:57 49.44393 -2.51833 1292 ft 106 kts 88°
2026-04-22 19:58 49.44469 -2.50756 1482 ft 104 kts 87°
2026-04-22 19:58 49.44624 -2.49618 1294 ft 113 kts 88°
2026-04-22 19:58 49.44226 -2.48536 1082 ft 136 kts 139°
2026-04-22 19:58 49.43225 -2.48416 1022 ft 147 kts 180°
2026-04-22 19:59 49.42233 -2.48652 1085 ft 143 kts 177°
2026-04-22 20:00 49.39331 -2.55849 1091 ft 171 kts 266°
2026-04-22 20:00 49.39277 -2.57651 1087 ft 170 kts 266°
2026-04-22 20:01 49.39221 -2.59466 1092 ft 170 kts 266°
2026-04-22 20:01 49.39164 -2.61282 1085 ft 170 kts 266°
2026-04-22 20:01 49.39101 -2.63062 1089 ft 167 kts 266°
2026-04-22 20:01 49.39040 -2.64861 1087 ft 168 kts 266°
2026-04-22 20:02 49.38985 -2.66628 1084 ft 166 kts 266°
2026-04-22 20:02 49.38934 -2.68422 1083 ft 169 kts 266°
2026-04-22 20:02 49.38874 -2.70215 1086 ft 169 kts 266°
2026-04-22 20:02 49.38830 -2.72034 1084 ft 170 kts 266°
2026-04-22 20:03 49.38780 -2.73842 1088 ft 169 kts 266°
2026-04-22 20:03 49.38832 -2.75601 1061 ft 165 kts 290°
2026-04-22 20:03 49.39583 -2.76795 1055 ft 151 kts 347°
2026-04-22 20:03 49.40568 -2.77074 1070 ft 145 kts 359°
2026-04-22 20:04 49.41578 -2.77355 1076 ft 148 kts 359°
2026-04-22 20:04 49.42589 -2.77665 1083 ft 149 kts 358°
2026-04-22 20:04 49.43489 -2.78552 1055 ft 167 kts 309°
2026-04-22 20:04 49.43671 -2.80297 1058 ft 169 kts 252°
2026-04-22 20:05 49.42929 -2.81296 1015 ft 140 kts 164°
2026-04-22 20:05 49.42335 -2.80387 862 ft 125 kts 97°
2026-04-22 20:05 49.42563 -2.79163 821 ft 120 kts 62°
2026-04-22 20:05 49.42721 -2.77931 770 ft 121 kts 89°
2026-04-22 20:06 49.42741 -2.76632 771 ft 121 kts 87°
2026-04-22 20:06 49.42776 -2.75413 1024 ft 109 kts 88°
2026-04-22 20:06 49.42829 -2.74160 1091 ft 127 kts 86°
2026-04-22 20:06 49.42900 -2.72748 1116 ft 136 kts 87°
2026-04-22 20:07 49.42987 -2.71264 1118 ft 141 kts 86°
2026-04-22 20:07 49.43069 -2.69778 1143 ft 128 kts 87°
2026-04-22 20:07 49.43149 -2.68753 1321 ft 67 kts 88°
2026-04-22 20:07 49.43244 -2.68111 1325 ft 65 kts 85°
2026-04-22 20:08 49.43294 -2.67424 1307 ft 55 kts 93°
2026-04-22 20:08 49.43324 -2.66782 1194 ft 71 kts 86°
2026-04-22 20:08 49.43382 -2.65964 1193 ft 82 kts 88°
2026-04-22 20:08 49.43399 -2.65089 1162 ft 82 kts 90°
2026-04-22 20:09 49.43412 -2.64198 1049 ft 86 kts 90°
2026-04-22 20:09 49.43427 -2.63280 909 ft 83 kts 89°
2026-04-22 20:09 49.43433 -2.62353 624 ft 85 kts 86°
2026-04-22 20:09 49.43462 -2.61425 391 ft 87 kts 84°
2026-04-22 20:10 49.43475 -2.60723 304 ft 44 kts 73°
2026-04-22 20:10 49.43489 -2.60460 304 ft 17 kts 87°
2026-04-22 20:10 49.43494 -2.60296 306 ft 15 kts 88°
2026-04-22 20:10 49.43503 -2.60107 309 ft 21 kts 87°
2026-04-22 20:11 49.43497 -2.59879 315 ft 17 kts 136°
2026-04-22 20:11 49.43405 -2.59858 320 ft 5 kts 180°
2026-04-22 20:11 49.43392 -2.59858 320 ft 0 kts 178°
2026-04-22 20:11 49.43363 -2.59855 317 ft 10 kts 172°
2026-04-22 20:12 49.43346 -2.59793 322 ft 6 kts 82°
2026-04-22 20:12 49.43357 -2.59724 322 ft 6 kts 83°
2026-04-22 20:12 49.43361 -2.59654 324 ft 7 kts 86°
2026-04-22 20:12 49.43363 -2.59567 326 ft 10 kts 88°
2026-04-22 20:13 49.43366 -2.59486 327 ft 1 kts 89°
2026-04-22 20:13 49.43363 -2.59463 327 ft 4 kts 127°
2026-04-22 20:13 49.43304 -2.59457 325 ft 5 kts 180°
2026-04-22 20:13 49.43295 -2.59457 324 ft 0 kts 178°
2026-04-22 20:29 49.43304 -2.59457 323 ft 8 kts 176°
2026-04-22 20:29 49.43341 -2.59460 327 ft 1 kts 179°
2026-04-22 20:29 49.43367 -2.59449 325 ft 0 kts 272°
2026-04-22 20:30 49.43367 -2.59472 327 ft 9 kts 266°
2026-04-22 20:30 49.43362 -2.59635 324 ft 21 kts 266°
2026-04-22 20:30 49.43345 -2.59884 316 ft 23 kts 266°
2026-04-22 20:31 49.43338 -2.60115 301 ft 21 kts 269°
2026-04-22 20:31 49.43332 -2.60321 289 ft 18 kts 267°
2026-04-22 20:31 49.43329 -2.60478 287 ft 12 kts 268°
2026-04-22 20:31 49.43345 -2.60639 294 ft 13 kts 322°
2026-04-22 20:32 49.43395 -2.60651 296 ft 26 kts
2026-04-22 20:32 49.43491 -2.60441 304 ft 38 kts 88°
2026-04-22 20:32 49.43507 -2.59894 845 ft 38 kts 88°
2026-04-22 20:32 49.43508 -2.59094 1098 ft 87 kts 90°
2026-04-22 20:33 49.43494 -2.58131 1582 ft 89 kts 97°
2026-04-22 20:33 49.43543 -2.57870 2650 ft 70 kts 283°
2026-04-22 20:33 49.43523 -2.57293 1823 ft 120 kts 148°
2026-04-22 20:33 49.43202 -2.58848 1544 ft 196 kts 269°
2026-04-22 20:34 49.43203 -2.60659 1611 ft 103 kts 260°
2026-04-22 20:34 49.43199 -2.61981 1197 ft 146 kts 269°
2026-04-22 20:34 49.43165 -2.63411 1148 ft 122 kts 274°
2026-04-22 20:34 49.43595 -2.63671 876 ft 91 kts 85°
2026-04-22 20:35 49.43488 -2.62744 779 ft 84 kts 92°
2026-04-22 20:35 49.43465 -2.62020 574 ft 63 kts 87°
2026-04-22 20:35 49.43467 -2.61333 361 ft 69 kts 84°
2026-04-22 20:35 49.43471 -2.60741 304 ft 17 kts 80°